Home > Time Zones > World Clock > Weather > France > Metz > Past weeks

Flag for France Weather past 2 weeks in Metz, France

Now
57 °F

Fog.


Feels Like: 55 °F
Forecast: 59 / 74 °F
Wind: 8 mph from Southeast

Location: Metz-Nancy-Lorraine

Current Time: Aug 28, 2014 at 7:07:23 AM

Latest Report: Aug 28, 2014 at 6:30 AM


Visibility: 0 mi

Pressure: 30.04 "Hg

Humidity: 100%

Dew point: 57 °F

Location of MetzLocation

Historic Weather in Metz — Graph

°F

Metz temperature yesterday

Maximum temperature yesterday: 68 °F (at 2:30 PM)
Minimum temperature yesterday: 57 °F (at 12:30 AM)
Average temperature yesterday: 62 °F

Past Weeks' High & Low Weather Summary

 TemperatureHumidityPressure
High68 °F (Aug 14, 3:00 PM)100% (Aug 15, 4:00 AM)30.18 "Hg (Aug 15, 4:00 AM)
Low45 °F (Aug 21, 6:00 AM)37% (Aug 21, 5:30 PM)29.65 "Hg (Aug 13, 12:00 PM)
Average58 °F77%29.97 "Hg
* Reported Aug 13 6:00 AM — Aug 28 6:00 AM, Metz, Weather by CustomWeather, © 2014

Note: Actual official high and low records may vary slightly from our data, if they occured in-between our weather recording intervals... More about our weather records

Advertising

Metz weather history for previous 24 hours

 ConditionsComfort  
Time TempWeatherWind HumidityBarometerVisibility
6:00 AM
Aug 28
57 °FClear.8 mph94%30.04 "Hg5 mi
5:30 AM57 °FClear.6 mph94%30.04 "HgN/A
5:00 AM57 °FClear.6 mph100%30.04 "HgN/A
4:30 AM59 °FClear.7 mph94%30.04 "HgN/A
4:00 AM59 °FClear.6 mph94%30.04 "HgN/A
3:30 AM59 °FClear.8 mph94%30.04 "HgN/A
3:00 AM57 °FClear.6 mph94%30.04 "HgN/A
2:30 AM59 °FClear.8 mph94%30.04 "HgN/A
2:00 AM59 °FClear.7 mph94%30.04 "HgN/A
1:30 AM61 °FClear.6 mph88%30.04 "HgN/A
1:00 AM61 °FClear.6 mph88%30.04 "HgN/A
12:30 AM61 °FClear.7 mph88%30.04 "HgN/A
12:00 AM61 °FClear.6 mph88%30.04 "HgN/A
11:30 PM
Aug 27
61 °FClear.6 mph94%30.04 "HgN/A
11:00 PM61 °FClear.5 mph88%30.04 "HgN/A
10:30 PM61 °FClear.5 mph88%30.04 "HgN/A
10:00 PM61 °FClear.5 mph88%30.04 "HgN/A
9:30 PM63 °FClear.3 mph83%30.04 "HgN/A
9:00 PM63 °FClear.5 mph83%30.04 "HgN/A
8:00 PM64 °FClear.2 mph73%30.01 "HgN/A
7:30 PM64 °FClear.6 mph78%30.01 "HgN/A
7:00 PM66 °FClear.8 mph73%30.04 "HgN/A
6:30 PM68 °FMild.6 mph69%30.04 "HgN/A
6:00 PM68 °FBroken clouds.6 mph69%30.01 "HgN/A
4:30 PM68 °FPartly sunny.3 mph69%30.01 "HgN/A
4:00 PM66 °FClear.5 mph73%30.04 "HgN/A
3:30 PM66 °FMostly cloudy.6 mph73%30.01 "HgN/A
3:00 PM68 °FClear.1 mph64%30.01 "HgN/A
2:30 PM68 °FBroken clouds.2 mph69%30.01 "HgN/A
2:00 PM66 °FBroken clouds.2 mph78%30.01 "HgN/A
1:30 PM66 °FMostly cloudy.3 mph73%30.01 "HgN/A
1:00 PM66 °FMostly cloudy.3 mph78%30.01 "HgN/A
12:30 PM64 °FPartly sunny.5 mph83%30.01 "HgN/A
12:00 PM63 °FBroken clouds.6 mph83%30.01 "HgN/A
11:30 AM63 °FLight rain. Mostly cloudy.5 mph83%30.01 "HgN/A
11:00 AM64 °FBroken clouds.3 mph78%30.01 "HgN/A
10:30 AM63 °FPartly sunny.5 mph83%29.98 "HgN/A
10:00 AM63 °FLow clouds.3 mph83%29.98 "HgN/A
9:30 AM61 °FLow clouds.5 mph88%29.98 "HgN/A
9:00 AM61 °FMostly cloudy.3 mph88%29.95 "HgN/A
8:30 AM59 °FBroken clouds.3 mph94%29.95 "HgN/A
8:00 AM59 °FMostly cloudy.2 mph94%29.95 "HgN/A
7:30 AM59 °FMostly cloudy.3 mph94%29.92 "HgN/A
7:00 AM59 °FLow clouds.5 mph94%29.92 "HgN/A
Weather by CustomWeather, © 2014

See weather overviewHow to use our weather pages